Other Public Products
Issued by NWS Grand Forks, ND

Home | Current Version | Previous Version | Graphics & Text | Print | Product List | Glossary On
Versions: 1 2 3 4 5 6 7 8 9 10 11 12 13 14 15 16 17 18 19 20 21 22 23 24 25 26 27 28 29 30 31 32 33 34 35 36 37 38 39 40 41 42 43 44 45 46 47 48 49 50
000
FPUS83 KFGF 040331
OPUFGF
PRAIRIE TO PINES WEATHER ROUNDUP
NATIONAL WEATHER SERVICE EASTERN NORTH DAKOTA/GRAND FORKS ND
1000 PM CDT MON AUG 03 2015

 **SATELLITE DATA USED TO AUGMENT SKY COVER AT AUTOMATED STATIONS**
 *****  WEATHER ACROSS EASTERN NORTH DAKOTA  *****

CITY           SKY/WX    TMP DP  RH WIND       PRES   REMARKS
GRAND FORKS    CLEAR     61  51  70 CALM      29.90S
GRAND FORKS AF CLEAR     58  52  80 W5        29.91S
GRAND CITY NWS   N/A     64 N/A N/A MISG        N/A
BUXTON         NOT AVBL
DEVILS LAKE    CLEAR     64  46  52 CALM      29.94S
FARGO          CLEAR     62  51  67 CALM      29.93R
WAHPETON ARPT  CLEAR     59  48  67 W3        29.96R
$$

 *****  WEATHER ACROSS CENTRAL AND WESTERN NORTH DAKOTA  *****

CITY           SKY/WX    TMP DP  RH WIND       PRES   REMARKS
JAMESTOWN      CLEAR     62  53  72 CALM      29.96R
BISMARCK       CLEAR     68  50  52 NE5       29.97R
MINOT          CLEAR     67  49  52 SE3       29.95R
MINOT AFB      CLEAR     64  54  68 S5        29.95R
GARRISON         N/A     66  53  63 CALM      29.97R
WILLISTON      CLEAR     73  48  41 E8        29.96R
DICKINSON      CLEAR     64  51  62 E10       29.97R
HETTINGER      MOCLDY    70  53  54 E10       29.98S
$$

 *****  OTHER OBSERVATIONS NORTHEAST NORTH DAKOTA  *****

CITY           SKY/WX    TMP DP  RH WIND       PRES   REMARKS
WALHALLA       FAIR      59  55  88 MISG      29.94R
LANGDON        FAIR      61  52  72 N6        29.95R
CAVALIER       FAIR      61  54  77 CALM      29.92R
GRAFTON        FAIR      63  55  77 NE3       29.92R
CANDO          NOT AVBL
FORT TOTTEN      N/A     60  49  65 CALM      29.95S
ROLLA          NOT AVBL
RUGBY          NOT AVBL
 ***** THE ABOVE OBSERVATIONS ARE NON NWS ARE NOT QUALITY
        CONTROLLED AND MAY MIS-REPORT RAIN FOR SNOW...
$$

 *****  OTHER OBSERVATIONS SOUTHEAST NORTH DAKOTA *****

CITY           SKY/WX    TMP DP  RH WIND       PRES   REMARKS
COOPERSTOWN    NOT AVBL
VALLEY CITY    FAIR      59  54  82 S3        29.97R
OAKES          NOT AVBL
GWINNER        NOT AVBL
SHEYENNE NWR     N/A     58  53  84 CALM      29.95
BUFFALO        NOT AVBL
WYNDMERE         N/A     55  52  88 SW3         N/A
 ***** THE ABOVE OBSERVATIONS ARE NON NWS ARE NOT QUALITY
       CONTROLLED AND MAY MIS-REPORT RAIN FOR SNOW...
$$

  *****  WEATHER ACROSS NORTHERN MINNESOTA  *****

CITY           SKY/WX    TMP DP  RH WIND       PRES   REMARKS
FLAG ISLAND    CLEAR     64  52  63 NW15      29.88S
WARROAD        CLEAR     61  54  77 NW3       29.91S
ROSEAU         CLEAR     57  52  82 CALM      29.91S
HALLOCK        CLEAR     59  52  77 N5        29.91R
THF RVR FALLS  CLEAR     59  52  77 CALM      29.93R
HALSTAD        NOT AVBL
FOSSTON        CLEAR     52  45  76 CALM      29.94S
BAUDETTE       CLEAR     58  51  78 W5        29.89S
WASKISH        CLEAR     63  54  72 NW3       29.90S
CROOKSTON      CLEAR     61  54  77 CALM      29.92S
$$
  *****  WEATHER ACROSS CENTRAL AND WEST MINNESOTA  *****

CITY           SKY/WX    TMP DP  RH WIND       PRES   REMARKS
BEMIDJI        CLEAR     59  46  62 W5        29.93R
PARK RAPIDS    CLEAR     60  50  69 NW6       29.94R
WADENA         CLEAR     55  48  76 CALM      29.95R
DETROIT LAKES  CLEAR     61  54  77 CALM      29.97R
MOORHEAD       CLEAR     63  52  67 CALM      29.95R
FERGUS FALLS   CLEAR     64  52  63 CALM      29.95R
ELBOW LAKE     FAIR      65  56  73 CALM      29.96R
MORRIS MN      CLEAR     63  55  77 CALM      29.96R HAZE
STAPLES        CLEAR     57  50  77 CALM      29.95R
WHEATON        CLEAR     59  50  72 CALM      29.98R
$$
  *****  WEATHER ELSEWHERE ACROSS MINNESOTA  *****

CITY           SKY/WX    TMP DP  RH WIND       PRES   REMARKS
DULUTH         MOCLDY    64  51  62 NW8       29.90R
INTRNTL FALLS  PTCLDY    53  51  93 CALM      29.88R
ELY            MOCLDY    55  54  94 CALM      29.88R
CLOQUET        CLEAR     59  50  72 W5        29.91S
BRAINERD       CLEAR     62  51  67 CALM      29.94R
HIBBING        PTCLDY    53  50  89 CALM      29.90S
ALEXANDRIA     CLEAR     64  51  62 CALM      29.97R
SAINT CLOUD    PTCLDY    63  52  67 NW5       29.93R
MINNEAPOLIS    PTCLDY    71  53  52 W7        29.92R
$$

  *****  WEATHER ACROSS SOUTH DAKOTA  *****

CITY           SKY/WX    TMP DP  RH WIND       PRES   REMARKS
SIOUX FALLS    PTCLDY    67  59  75 N5        29.97R
BROOKINGS      CLEAR     66  54  63 CALM      30.01R
WATERTOWN      CLEAR     67  51  56 CALM      29.99R
HURON          CLEAR     70  58  65 E6        29.96R
SISSETON         N/A     60  54  80 CALM      29.96R
ABERDEEN       CLEAR     65  56  72 E3        29.96R
MITCHELL       PTCLDY    68  59  73 E5        29.97R
PIERRE         PTCLDY    70  57  63 E6        29.93S
MOBRIDGE       CLEAR     72  53  51 E8        29.94R
RAPID CITY     MOCLDY    72  58  61 E10       29.97R
$$

  *****  SOME WEATHER IN NEARBY STATES *****

CITY           SKY/WX    TMP DP  RH WIND       PRES   REMARKS
GLASGOW MT     PTCLDY    76  44  32 E13       29.88S
GREAT FALLS MT PTCLDY    82  45  27 E9        29.79R
CHEYENNE WY    MOCLDY    71  46  40 S14       30.11R
SCOTTSBLUFF NE CLOUDY    75  60  59 E6        29.96S
OMAHA NE       MOCLDY    76  65  68 SE5       29.96R
DES MOINES IA  PTCLDY    74  55  51 N3        29.96R
DAVENPORT IA   CLEAR     64  59  83 W6        29.95R
CHICAGO IL     PTCLDY    70  54  56 W6        29.90R
EAU CLAIRE WI  CLOUDY    64  54  69 W3        29.89R
LA CROSSE WI   CLEAR     68  55  63 CALM      29.90R
$$

  *****  SOME NATIONAL WEATHER *****

CITY           SKY/WX    TMP DP  RH WIND       PRES   REMARKS
LA GUARDIA NY  PTCLDY    85  59  41 SW9       29.81R
RALEIGH NC     PTCLDY    82  68  62 SW14      29.95R
ATLANTA GA     PTCLDY    87  64  46 NE6       29.95R
NEW ORLEANS LA PTCLDY    80  71  74 S6        29.92R
OKLAHOMA CITY  MOCLDY    77  68  73 E7        29.92S
ALBUQUERQUE NM PTCLDY    83  44  25 NW9       30.10R
SALT LAKE CITY MOCLDY    68  58  70 SE5       30.08R
LOS ANGELES CA PTCLDY    70  62  76 SW9       29.86S
BOISE ID       MOCLDY    88  47  24 NW5       29.85R
SEATTLE WA     PTCLDY    76  55  48 W7        29.90R
$$

*** WEATHER ACROSS MANITOBA...SASKATCHEWAN AND ONTARIO ***
                ***ONTARIO***

CITY           SKY/WX    TMP DP  RH WIND       PRES   REMARKS
GERALDTON      CLOUDY    55  50  82 NW7       29.77R
THUNDER BAY    CLOUDY    59  55  88 W6        29.81R
SIOUX LOOKOUT  MOCLDY    54  52  94 N5        29.86R
TORONTO        PTCLDY    68  54  60 W12G18    29.79R
BIG TROUT LK   MOCLDY    52  52 100 N6        29.83S
PICKLE LAKE    NOT AVBL
DRYDEN         PTCLDY    55  54  94 W5        29.86S
KENORA         PTCLDY    59  54  82 N5        29.89S
$$
                *** MANITOBA***

CITY           SKY/WX    TMP DP  RH WIND       PRES   REMARKS
BRANDON        PTCLDY    59  52  77 NE7       29.95R
DAUPHIN        CLEAR     59  54  82 CALM      29.95R
ISLAND LAKE    CLOUDY    54  48  82 N3        29.94S
PILOT MOUND      N/A     59  52  77 E8          N/A
THE PAS        PTCLDY    63  52  67 NE5       29.97S
THOMPSON       LGT RAIN  55  54  94 CALM      29.97R
WINNIPEG       PTCLDY    59  54  82 NE5       29.92R
LYNN LAKE      CLOUDY    61  52  72 NW5       29.98S
CHURCHILL      DRIZZLE   46  46 100 N12       29.95S FOG
GILLAM         CLOUDY    54  46  76 N5        29.95R
$$
                ***SASKATCHEWAN***

CITY           SKY/WX    TMP DP  RH WIND       PRES   REMARKS
ESTEVAN        PTCLDY    63  50  63 E7        29.96R
KINDERSLEY     PTCLDY    70  55  60 E14       29.87R
LLOYDMINSTER   MOCLDY    68  54  60 E14       29.87S
PRINCE ALBERT  PTCLDY    64  59  82 CALM      29.93S
REGINA         PTCLDY    66  54  63 E8        29.96R



USA.gov is the U.S. government's official web portal to all federal, state and local government web resources and services.